Location: Rancho Del Sol Observatory
(38.7214°N, 120.6350°W)
Time: 16:50:12
(UTC-08:00)

Courier 1B - Pass Details

Date: 20 January 2020
Orbit: 962 x 1209 km, 28.3° (Epoch: 20 February)

Event Time Altitude Azimuth Distance (km) Brightness Sun altitude
Exits shadow 05:03:43 21° 213° (SSW) 2,383 9.3 -25.8°
Maximum altitude 05:07:42 33° 167° (SSE) 1,896 9.1 -25.0°
Drops below altitude 10° 05:14:29 10° 107° (ESE) 3,141 11.2 -23.7°
Sets 05:17:40 0° 98° (E) 4,105 12.2 -23.1°
